Flag for Germany Weather past 2 weeks in Weißenfels, Saxony-Anhalt, Germany

Now
51 °F

Light rain. Low clouds.


Feels Like: 50 °F
Forecast: 48 / 52 °F
Wind: 5 mph from North

Location: Leipzig-Schkeuditz

Current Time: Oct 23, 2014 at 12:26:00 AM

Latest Report: Oct 23, 2014 at 12:00 AM


Visibility: 4 mi

Pressure: 29.94 "Hg

Humidity: 96%

Dew point: 50 °F

Location of WeißenfelsLocation

Historic Weather in Weißenfels — Graph

°F

Weißenfels temperature yesterday

Maximum temperature yesterday: 52 °F (at 10:00 PM)
Minimum temperature yesterday: 43 °F (at 9:00 AM)
Average temperature yesterday: 47 °F

Past Weeks' High & Low Weather Summary

 TemperatureHumidityPressure
High72 °F (Oct 19, 3:00 PM)97% (Oct 12, 2:00 AM)30.23 "Hg (Oct 12, 2:00 AM)
Low43 °F (Oct 22, 9:00 AM)49% (Oct 15, 4:00 PM)29.47 "Hg (Oct 21, 9:00 PM)
Average58 °F84%29.87 "Hg
* Reported Oct 7 10:00 PM — Oct 22 10:00 PM, Weißenfels, Weather by CustomWeather, © 2014

Note: Actual official high and low records may vary slightly from our data, if they occured in-between our weather recording intervals... More about our weather records

Advertising

Weißenfels weather history for previous 24 hours

 ConditionsComfort  
Time TempWeatherWind HumidityBarometerVisibility
10:00 PM
Oct 22
52 °FDrizzle. Low clouds.8 mph96%29.88 "Hg3 mi
9:00 PM51 °FLight rain. Low clouds.8 mph96%29.84 "Hg6 mi
8:00 PM51 °FLight rain. Low clouds.8 mph97%29.80 "Hg6 mi
7:00 PM50 °FRain. Low clouds.5 mph97%29.77 "Hg6 mi
6:00 PM49 °FLight rain. Low clouds.3 mph97%29.76 "Hg3 mi
4:00 PM45 °FRain. Low clouds.6 mph97%29.73 "Hg3 mi
3:00 PM45 °FLight rain. Overcast.9 mph95%29.72 "Hg7 mi
2:00 PM45 °FLight rain. Overcast.12 mph91%29.73 "Hg14 mi
1:00 PM46 °FLight rain. Overcast.10 mph90%29.72 "Hg17 mi
12:00 PM46 °FRain. Overcast.10 mph91%29.73 "Hg5 mi
10:00 AM45 °FOvercast.8 mph93%29.73 "Hg28 mi
9:00 AM43 °FLight rain. Overcast.9 mph94%29.72 "Hg28 mi
8:00 AM43 °FLight rain. Overcast.10 mph91%29.71 "Hg19 mi
7:00 AM46 °FLight rain. Overcast.12 mph81%29.68 "Hg28 mi
6:00 AM47 °FOvercast.10 mph80%29.68 "Hg28 mi
4:00 AM47 °FOvercast.9 mph83%29.68 "Hg28 mi
3:00 AM47 °FPassing clouds.12 mph83%29.67 "Hg28 mi
2:00 AM48 °FOvercast.12 mph88%29.65 "Hg25 mi
1:00 AM49 °FLight rain. Overcast.8 mph90%29.60 "Hg12 mi
12:00 AM50 °FLight rain. Low clouds.6 mph94%29.55 "Hg6 mi
Weather by CustomWeather, © 2014

See weather overviewHow to use our weather pages